QPF
0.00 0.00 0.00 0.00 0.00 0.00 0.00 0.00 0.00 0.00 0.00 0.00 0.00 0.00 0.00 0.00 0.00 0.00 0.00 0.00 0.00 0.00 0.00 0.00 0.00 0.00 0.00 0.00 0.00 0.00 0.00 0.00 0.00 0.00 0.00 0.00 0.00 0.00 0.00 0.00 0.00 0.00 0.00 0.00 0.00
0.00 0.00 0.00 0.00 0.00 0.00 0.00 0.00 0.00 0.00 0.00 0.00 0.00 0.00 0.00 0.00 0.00 0.00 0.00 0.00 0.00 0.00 0.00 0.00 0.00 0.00 0.00 0.00 0.00 0.00 0.00 0.00 0.00 0.00 0.00 0.00 0.00 0.00 0.00 0.00 0.00 0.00 0.00 0.00 0.00
0.00 0.00 0.00 0.00 0.00 0.00 0.00 0.00 0.00 0.00 0.00 0.00 0.00 0.00 0.00 0.00 0.00 0.00 0.00 0.00 0.00 0.00 0.00 0.00 0.00 0.00 0.00 0.00 0.00 0.00 0.00 0.00 0.00 0.00 0.00 0.00 0.00 0.00 0.00 0.00 0.00 0.00 0.00 0.00 0.00
0.00 0.00 0.00 0.00 0.00 0.00 0.00 0.00 0.00 0.00 0.00 0.00 0.00 0.00 0.00 0.00 0.00 0.00 0.00 0.00 0.00 0.00 0.00 0.00 0.00 0.00 0.00 0.00 0.00 0.00 0.00 0.00 0.00 0.00 0.00 0.00 0.00 0.00 0.00 0.00 0.00 0.00 0.00 0.00 0.00
0.00 0.00 0.00 0.00 0.00 0.00 0.00 0.00 0.00 0.00 0.00 0.00 0.00 0.00 0.00 0.00 0.00 0.00 0.00 0.00 0.00 0.00 0.00 0.00 0.00 0.00 0.00 0.00 0.00 0.00 0.00 0.00 0.00 0.00 0.00 0.00 0.00 0.00 0.00 0.00 0.00 0.00 0.00 0.00 0.00
0.00 0.00 0.00 0.00 0.00 0.00 0.00 0.00 0.00 0.00 0.00 0.00 0.00 0.00 0.00 0.00 0.00 0.00 0.00 0.00 0.00 0.00 0.00 0.00 0.00 0.00 0.00 0.00 0.00 0.00 0.00 0.00 0.00 0.00 0.00 0.00 0.00 0.00 0.00 0.00 0.00 0.00 0.00 0.00 0.00
0.00 0.00 0.00 0.00 0.00 0.00 0.00 0.00 0.00 0.00 0.00 0.00 0.00 0.00 0.00 0.00 0.00 0.00 0.00 0.00 0.00 0.00 0.00 0.00 0.00 0.00 0.00 0.00 0.00 0.00 0.00 0.00 0.00 0.00 0.00 0.00 0.00 0.00 0.00 0.00 0.00 0.00 0.00 0.00 0.00
0.00 0.00 0.00 0.00 0.00 0.00 0.00 0.00 0.00 0.00 0.00 0.00 0.00 0.00 0.00 0.00 0.00 0.00 0.00 0.00 0.00 0.00 0.00 0.00 0.00 0.00 0.00 0.00 0.00 0.00 0.00 0.00 0.00 0.00 0.00 0.00 0.00 0.00 0.00 0.00 0.00 0.00 0.00 0.00 0.00
0.00 0.00 0.00 0.00 0.00 0.00 0.00 0.00 0.00 0.00 0.00 0.00 0.00 0.00 0.00 0.00 0.00 0.00 0.00 0.00 0.00 0.00 0.00 0.00 0.00 0.00 0.00 0.00 0.00 0.00 0.00 0.00 0.00 0.00 0.00 0.00 0.00 0.00 0.00 0.00 0.00 0.00 0.00 0.00 0.00
0.00 0.00 0.00 0.00 0.00 0.00 0.00 0.00 0.00 0.00 0.00 0.00 0.00 0.00 0.00 0.00 0.00 0.00 0.00 0.00 0.00 0.00 0.00 0.00 0.00 0.00 0.00 0.00 0.00 0.00 0.00 0.00 0.00 0.00 0.00 0.00 0.00 0.00 0.00 0.00 0.00 0.00 0.00 0.00 0.00
0.00 0.00 0.00 0.00 0.00 0.00 0.00 0.00 0.00 0.00 0.00 0.00 0.00 0.00 0.00 0.00 0.00 0.00 0.00 0.00 0.00 0.00 0.00 0.00 0.00 0.00 0.00 0.00 0.00 0.00 0.00 0.00 0.00 0.00 0.00 0.00 0.00 0.00 0.00 0.00 0.00 0.00 0.00 0.00 0.00
0.00 0.00 0.00 0.00 0.00 0.00 0.00 0.00 0.00 0.00 0.00 0.00 0.00 0.00 0.00 0.00 0.00 0.00 0.00 0.00 0.00 0.00 0.00 0.00 0.00 0.00 0.00 0.00 0.00 0.00 0.00 0.00 0.00 0.00 0.00 0.00 0.00 0.00 0.00 0.00 0.00 0.00 0.00 0.00 0.00
0.00 0.00 0.00 0.00 0.00 0.00 0.00 0.00 0.00 0.00 0.00 0.00 0.00 0.00 0.00 0.00 0.00 0.00 0.00 0.00 0.00 0.00 0.00 0.00 0.00 0.00 0.00 0.00 0.00 0.00 0.00 0.00 0.00 0.00 0.00 0.00 0.00 0.00 0.00 0.00 0.00 0.00 0.00 0.00 0.00
0.00 0.00 0.00 0.00 0.01 0.00 0.00 0.00 0.00 0.00 0.00 0.00 0.00 0.00 0.00 0.00 0.00 0.00 0.00 0.00 0.00 0.00 0.00 0.00 0.00 0.00 0.00 0.00 0.00 0.00 0.00 0.00 0.00 0.00 0.00 0.00 0.00 0.00 0.00 0.00 0.00 0.00 0.00 0.00 0.00
0.02 0.00 0.00 0.00 0.00 0.00 0.00 0.00 0.00 0.00 0.00 0.00 0.00 0.00 0.00 0.00 0.00 0.00 0.00 0.00 0.00 0.00 0.00 0.00 0.00 0.00 0.00 0.00 0.00 0.00 0.00 0.00 0.00 0.00 0.00 0.00 0.00 0.00 0.00 0.00 0.00 0.00 0.00 0.00 0.00
0.01 0.01 0.00 0.00 0.00 0.00 0.00 0.00 0.00 0.00 0.00 0.00 0.00 0.00 0.00 0.00 0.00 0.00 0.00 0.00 0.00 0.00 0.00 0.00 0.00 0.00 0.00 0.00 0.00 0.00 0.00 0.00 0.00 0.00 0.00 0.00 0.00 0.00 0.00 0.00 0.00 0.00 0.00 0.00 0.00
0.00 0.00 0.00 0.00 0.00 0.00 0.00 0.00 0.01 0.00 0.00 0.00 0.00 0.00 0.00 0.00 0.00 0.00 0.00 0.00 0.00 0.00 0.00 0.00 0.00 0.00 0.00 0.00 0.00 0.00 0.00 0.00 0.00 0.00 0.00 0.00 0.00 0.00 0.00 0.00 0.00 0.00 0.00 0.00 0.00
0.00 0.00 0.00 0.00 0.00 0.00 0.02 0.02 0.01 0.00 0.00 0.00 0.00 0.00 0.00 0.00 0.00 0.00 0.00 0.00 0.00 0.00 0.00 0.00 0.00 0.00 0.00 0.00 0.00 0.00 0.00 0.00 0.00 0.00 0.00 0.00 0.00 0.00 0.00 0.00 0.00 0.00 0.00 0.00 0.00
0.00 0.00 0.00 0.00 0.00 0.01 0.03 0.01 0.00 0.00 0.00 0.00 0.00 0.00 0.00 0.00 0.00 0.00 0.00 0.00 0.00 0.00 0.00 0.00 0.00 0.00 0.00 0.00 0.00 0.00 0.00 0.00 0.00 0.00 0.00 0.00 0.00 0.00 0.00 0.00 0.00 0.00 0.00 0.00 0.00
0.00 0.01 0.00 0.00 0.00 0.00 0.01 0.00 0.00 0.00 0.00 0.00 0.00 0.00 0.00 0.00 0.00 0.00 0.00 0.00 0.00 0.00 0.00 0.00 0.00 0.00 0.00 0.00 0.00 0.00 0.00 0.00 0.00 0.00 0.00 0.00 0.00 0.00 0.00 0.00 0.00 0.00 0.00 0.00 0.00
0.01 0.02 0.01 0.00 0.00 0.00 0.00 0.00 0.00 0.00 0.00 0.00 0.00 0.00 0.00 0.00 0.00 0.00 0.00 0.00 0.00 0.00 0.00 0.00 0.00 0.00 0.00 0.00 0.00 0.00 0.00 0.00 0.00 0.00 0.00 0.00 0.00 0.00 0.00 0.00 0.00 0.00 0.00 0.00 0.00
0.02 0.01 0.03 0.01 0.00 0.00 0.00 0.00 0.00 0.00 0.00 0.00 0.00 0.00 0.00 0.00 0.00 0.00 0.00 0.00 0.00 0.00 0.00 0.00 0.00 0.00 0.00 0.00 0.00 0.00 0.00 0.00 0.00 0.00 0.00 0.00 0.00 0.00 0.00 0.00 0.00 0.00 0.00 0.00 0.00
0.02 0.01 0.03 0.03 0.00 0.00 0.00 0.00 0.00 0.00 0.00 0.00 0.00 0.00 0.00 0.00 0.00 0.00 0.00 0.00 0.00 0.00 0.00 0.00 0.00 0.00 0.00 0.00 0.00 0.00 0.00 0.00 0.00 0.00 0.00 0.00 0.00 0.00 0.00 0.00 0.00 0.00 0.00 0.00 0.00
0.01 0.00 0.00 0.00 0.00 0.00 0.00 0.00 0.00 0.00 0.00 0.00 0.00 0.00 0.00 0.00 0.00 0.00 0.00 0.00 0.00 0.00 0.00 0.00 0.00 0.00 0.00 0.00 0.00 0.00 0.00 0.00 0.00 0.00 0.00 0.00 0.00 0.00 0.00 0.00 0.00 0.00 0.00 0.00 0.00
0.02 0.00 0.00 0.00 0.00 0.00 0.00 0.00 0.00 0.00 0.00 0.00 0.00 0.00 0.00 0.00 0.00 0.00 0.00 0.00 0.00 0.00 0.00 0.00 0.00 0.00 0.00 0.00 0.00 0.00 0.00 0.00 0.00 0.00 0.00 0.00 0.00 0.00 0.00 0.00 0.00 0.00 0.00 0.00 0.00
0.02 0.00 0.00 0.00 0.00 0.00 0.00 0.00 0.00 0.00 0.00 0.00 0.00 0.00 0.00 0.00 0.00 0.00 0.00 0.00 0.00 0.00 0.00 0.00 0.00 0.00 0.00 0.00 0.00 0.00 0.00 0.00 0.00 0.00 0.00 0.00 0.00 0.00 0.00 0.00 0.00 0.00 0.00 0.00 0.00
0.00 0.00 0.00 0.00 0.00 0.00 0.00 0.00 0.00 0.00 0.00 0.00 0.00 0.00 0.00 0.00 0.00 0.00 0.00 0.00 0.00 0.00 0.00 0.00 0.00 0.00 0.00 0.00 0.00 0.00 0.00 0.00 0.00 0.00 0.00 0.00 0.00 0.00 0.00 0.00 0.00 0.00 0.00 0.00 0.00
MSLP
1018.82 1018.72 1018.64 1018.61 1018.44 1018.27 1018.18 1018.06 1017.82 1017.62 1017.37 1017.26 1017.03 1016.79 1016.49 1016.10 1015.56 1015.41 1014.36 1014.81 1014.57 1014.67 1014.67 1013.89 1013.41 1013.11 1012.85 1012.81 1012.93 1012.62 1011.32 1010.33 1010.31 1010.48 1010.81 1012.11 1012.22 1012.84 1013.27 1013.17 1013.82 1014.98 1015.69 1017.10 1017.46
1018.89 1018.83 1018.66 1018.59 1018.47 1018.39 1018.22 1018.12 1017.83 1017.62 1017.45 1017.30 1017.06 1016.80 1016.54 1016.23 1015.32 1014.54 1014.80 1014.70 1014.65 1014.71 1014.36 1013.68 1013.15 1013.07 1012.54 1012.77 1012.81 1012.36 1011.55 1010.72 1011.18 1011.13 1011.50 1012.30 1012.51 1012.84 1013.28 1013.55 1014.50 1015.67 1016.80 1017.51 1017.66
1018.98 1018.93 1018.71 1018.57 1018.50 1018.36 1018.28 1018.07 1017.92 1017.76 1017.57 1017.36 1017.09 1016.85 1016.53 1016.10 1015.04 1014.18 1014.67 1014.70 1014.77 1014.69 1014.20 1013.86 1013.44 1013.11 1012.70 1012.89 1012.84 1012.61 1011.91 1012.10 1012.29 1012.50 1012.40 1012.79 1013.19 1013.54 1013.58 1013.97 1014.52 1015.29 1016.94 1017.77 1018.01
1018.97 1018.90 1018.84 1018.65 1018.46 1018.33 1018.17 1018.01 1017.92 1017.84 1017.65 1017.33 1017.02 1016.64 1016.30 1015.71 1014.86 1014.60 1014.76 1014.74 1014.83 1014.50 1014.10 1013.77 1013.41 1012.97 1012.81 1012.78 1013.16 1012.86 1012.99 1012.88 1013.18 1013.51 1013.63 1013.53 1013.60 1013.77 1014.18 1015.18 1016.15 1016.95 1017.68 1018.14 1018.46
1018.81 1018.81 1018.79 1018.73 1018.59 1018.35 1018.15 1017.98 1017.90 1017.83 1017.64 1017.30 1016.95 1016.63 1016.00 1015.18 1014.25 1014.68 1014.90 1014.91 1014.65 1014.51 1014.06 1013.71 1013.35 1013.14 1012.89 1012.98 1013.34 1013.18 1013.26 1013.57 1013.74 1014.07 1014.18 1014.42 1014.15 1014.22 1014.61 1016.12 1017.07 1017.81 1018.28 1018.67 1019.08
1018.69 1018.74 1018.61 1018.65 1018.59 1018.50 1018.31 1018.09 1017.96 1017.80 1017.64 1017.33 1016.97 1016.70 1016.02 1015.11 1014.57 1014.56 1014.83 1014.94 1014.53 1014.43 1014.17 1014.02 1013.54 1013.57 1013.31 1013.33 1013.55 1013.55 1013.70 1013.59 1013.82 1014.03 1014.33 1014.64 1014.28 1014.96 1014.74 1016.27 1017.19 1017.88 1018.50 1019.10 1019.64
1018.61 1018.62 1018.60 1018.48 1018.48 1018.44 1018.40 1018.24 1018.10 1017.82 1017.60 1017.26 1017.04 1016.45 1015.56 1014.59 1014.50 1014.68 1014.84 1014.80 1014.80 1014.55 1014.33 1014.45 1014.23 1014.07 1013.85 1013.86 1014.18 1014.00 1013.72 1013.22 1013.43 1013.86 1014.23 1014.72 1014.38 1014.41 1015.01 1016.35 1017.07 1017.83 1018.61 1019.34 1019.83
1018.29 1018.46 1018.53 1018.44 1018.43 1018.39 1018.41 1018.24 1018.11 1017.91 1017.57 1017.28 1017.02 1016.32 1014.98 1014.85 1014.59 1014.93 1014.85 1014.89 1014.95 1014.91 1014.82 1014.95 1014.76 1014.54 1014.32 1014.58 1014.21 1013.80 1013.61 1012.78 1012.68 1013.84 1014.41 1014.76 1013.20 1013.75 1015.40 1016.07 1016.67 1017.55 1018.34 1019.25 1019.99
1017.90 1018.16 1018.36 1018.45 1018.35 1018.35 1018.32 1018.23 1017.97 1017.86 1017.64 1017.32 1016.79 1016.17 1014.83 1015.12 1014.88 1014.54 1014.62 1014.61 1015.00 1015.12 1015.26 1015.19 1014.90 1014.46 1014.79 1014.13 1013.59 1013.25 1012.33 1012.20 1012.62 1013.55 1014.03 1014.40 1013.16 1014.26 1015.32 1015.78 1016.25 1017.19 1018.12 1019.12 1019.96
1017.57 1017.83 1018.03 1018.20 1018.26 1018.28 1018.19 1018.11 1017.71 1017.69 1017.41 1017.05 1016.66 1016.36 1014.79 1014.47 1014.69 1014.72 1014.90 1014.79 1014.88 1015.13 1015.23 1015.13 1014.76 1014.32 1014.00 1013.46 1012.26 1011.79 1012.06 1012.09 1012.47 1013.20 1013.88 1013.72 1013.42 1014.12 1015.07 1015.46 1015.79 1016.77 1017.88 1018.80 1019.64
1017.08 1017.51 1017.77 1017.90 1018.08 1018.20 1018.23 1017.75 1017.61 1017.22 1016.60 1014.85 1014.31 1013.78 1014.00 1014.79 1014.96 1014.83 1014.90 1014.93 1014.86 1014.92 1014.61 1014.86 1014.39 1013.16 1012.77 1012.84 1012.40 1012.38 1012.24 1012.02 1012.02 1013.16 1013.81 1013.14 1012.84 1012.73 1014.15 1015.08 1015.38 1016.30 1017.37 1018.45 1019.58
1016.36 1017.11 1017.45 1017.63 1017.81 1018.11 1017.83 1016.75 1015.97 1016.62 1015.21 1014.19 1014.06 1013.84 1014.02 1014.08 1014.48 1014.78 1015.10 1014.76 1014.66 1014.19 1014.36 1014.98 1013.54 1012.72 1012.73 1012.86 1012.72 1012.84 1012.58 1012.27 1012.37 1013.35 1013.98 1013.08 1012.45 1012.40 1012.63 1013.73 1014.63 1015.60 1016.79 1018.10 1019.68
1015.74 1016.52 1016.96 1017.38 1017.66 1018.02 1017.23 1016.39 1016.39 1016.19 1015.21 1013.08 1012.92 1012.82 1013.20 1013.88 1013.32 1013.70 1014.43 1014.10 1014.11 1014.02 1014.02 1013.30 1012.78 1012.86 1013.24 1013.43 1013.38 1012.91 1012.75 1012.54 1012.80 1013.83 1014.14 1013.43 1012.17 1011.75 1011.64 1013.03 1014.51 1015.66 1016.68 1017.89 1019.16
1014.89 1015.73 1016.32 1017.10 1017.89 1016.88 1016.58 1016.20 1016.50 1016.42 1014.85 1012.05 1012.25 1011.38 1012.39 1012.95 1013.08 1013.09 1013.57 1013.75 1014.10 1013.44 1013.92 1013.44 1012.83 1013.40 1013.60 1013.38 1013.60 1012.93 1012.94 1013.44 1013.59 1014.00 1013.23 1013.44 1011.08 1010.48 1010.73 1012.54 1014.27 1015.75 1016.77 1017.76 1018.82
1014.00 1014.80 1015.38 1016.07 1014.94 1015.25 1015.16 1015.67 1016.19 1016.38 1014.47 1009.99 1011.39 1012.47 1011.75 1011.73 1012.47 1013.89 1013.93 1013.81 1013.05 1013.30 1013.71 1012.35 1013.16 1013.55 1013.48 1013.31 1013.86 1013.69 1013.96 1014.16 1014.26 1014.20 1013.94 1013.41 1013.08 1009.79 1010.46 1011.79 1013.06 1014.92 1016.44 1017.49 1018.62
1013.04 1013.74 1014.47 1015.27 1015.19 1014.35 1014.99 1015.38 1015.65 1015.92 1011.41 1010.59 1011.55 1012.11 1012.36 1012.26 1013.08 1014.03 1014.36 1014.02 1013.56 1013.30 1013.38 1012.84 1013.62 1013.54 1013.41 1014.20 1014.29 1014.70 1014.98 1015.27 1015.30 1015.05 1013.32 1013.00 1012.68 1008.74 1009.64 1010.26 1011.74 1014.17 1015.96 1017.09 1018.34
1012.26 1012.72 1013.41 1013.62 1013.54 1014.33 1014.79 1015.10 1014.96 1012.39 1008.36 1009.23 1010.38 1011.45 1011.66 1012.22 1013.14 1013.31 1013.51 1013.40 1012.60 1013.02 1012.37 1012.82 1012.86 1013.48 1013.96 1014.39 1015.13 1014.93 1015.09 1015.13 1014.92 1014.90 1012.76 1012.24 1011.61 1008.88 1009.30 1010.56 1011.32 1013.25 1015.31 1016.86 1018.35
1011.91 1012.03 1012.05 1012.23 1012.87 1013.73 1014.36 1013.96 1011.92 1006.94 1007.66 1008.70 1009.44 1010.45 1011.01 1011.97 1012.45 1012.88 1012.92 1012.46 1012.10 1011.21 1010.79 1011.15 1011.33 1012.06 1013.00 1012.45 1013.00 1014.17 1014.21 1014.16 1014.03 1013.96 1013.10 1013.24 1010.86 1009.43 1009.94 1011.06 1012.18 1013.33 1015.13 1016.70 1018.11
1011.88 1011.75 1011.23 1011.19 1012.03 1012.58 1013.23 1011.31 1008.01 1003.79 1006.08 1007.03 1009.20 1009.63 1010.35 1011.10 1011.69 1012.22 1011.56 1010.61 1009.84 1010.19 1010.56 1010.30 1010.78 1011.57 1012.47 1012.74 1012.91 1014.01 1014.13 1013.90 1014.50 1015.13 1014.20 1011.54 1010.24 1009.91 1011.04 1012.05 1012.88 1013.50 1014.87 1016.13 1017.46
1011.38 1011.02 1009.94 1010.38 1010.87 1011.44 1011.03 1009.27 1006.68 1005.72 1005.70 1005.62 1006.02 1007.24 1007.88 1009.38 1010.53 1010.89 1010.22 1008.58 1009.01 1009.28 1009.55 1009.82 1010.88 1012.14 1013.24 1013.68 1013.43 1013.52 1013.59 1014.59 1014.69 1013.99 1012.44 1009.70 1009.06 1008.64 1010.26 1011.12 1012.54 1013.42 1014.45 1015.99 1017.35
1010.80 1010.29 1008.18 1009.02 1010.18 1009.46 1007.91 1007.34 1006.04 1006.12 1005.50 1005.22 1005.08 1005.67 1005.99 1007.20 1008.37 1008.57 1007.66 1007.57 1008.21 1008.82 1009.98 1010.37 1011.05 1012.61 1013.43 1012.85 1012.19 1013.68 1013.46 1013.24 1012.94 1012.45 1011.30 1009.64 1007.61 1006.99 1007.77 1009.31 1010.88 1012.55 1013.72 1014.89 1016.10
1009.96 1009.22 1007.93 1008.33 1008.40 1007.34 1007.00 1004.60 1006.95 1006.01 1005.89 1005.27 1005.16 1005.06 1005.03 1006.15 1006.96 1007.04 1006.41 1006.36 1007.12 1008.31 1009.66 1009.91 1010.60 1011.21 1011.36 1011.63 1012.00 1011.53 1011.81 1012.34 1011.94 1011.91 1011.48 1010.28 1006.82 1007.36 1007.77 1008.46 1010.19 1011.87 1013.15 1014.34 1015.51
1008.99 1008.51 1008.09 1007.36 1006.40 1006.44 1006.67 1006.50 1006.65 1006.14 1005.38 1005.18 1004.93 1005.04 1005.21 1005.45 1006.23 1005.73 1005.67 1005.95 1007.03 1007.80 1008.29 1009.80 1010.88 1011.86 1011.47 1012.30 1012.58 1011.82 1011.12 1011.07 1011.35 1011.50 1009.81 1010.08 1006.65 1007.90 1008.49 1009.07 1009.99 1011.05 1012.24 1013.50 1014.83
1009.14 1008.38 1007.71 1007.50 1005.97 1006.28 1006.34 1005.87 1005.96 1005.78 1005.44 1005.20 1004.80 1005.34 1005.35 1005.31 1005.47 1004.91 1005.42 1006.58 1007.23 1007.70 1008.40 1008.81 1010.04 1009.61 1008.44 1008.18 1008.67 1010.04 1009.94 1010.34 1010.82 1010.34 1007.87 1006.96 1006.89 1008.08 1008.41 1008.88 1009.75 1010.51 1011.75 1012.95 1014.05
1008.63 1007.78 1007.06 1006.25 1006.40 1005.86 1005.48 1005.16 1005.11 1005.34 1005.47 1005.49 1005.20 1004.77 1005.30 1006.00 1006.10 1005.18 1006.28 1007.75 1008.45 1008.67 1009.08 1009.46 1010.21 1010.19 1008.66 1008.30 1008.24 1008.63 1008.68 1009.18 1009.08 1006.62 1008.13 1003.73 1006.08 1006.54 1007.33 1008.22 1008.75 1009.82 1011.32 1012.56 1013.62
1008.72 1007.64 1007.06 1006.55 1005.85 1005.69 1005.28 1004.40 1004.41 1004.80 1004.67 1004.81 1005.10 1005.01 1005.56 1005.29 1005.21 1005.82 1006.90 1006.99 1007.81 1009.36 1009.87 1010.22 1010.17 1010.36 1008.96 1008.46 1008.75 1008.48 1008.05 1007.53 1007.00 1006.86 1006.69 1005.41 1004.64 1005.59 1006.09 1007.70 1008.77 1009.63 1010.70 1011.81 1012.74
1008.29 1007.98 1007.41 1005.49 1005.48 1005.29 1004.95 1004.75 1003.97 1004.53 1004.26 1004.53 1005.12 1005.77 1005.48 1004.89 1006.26 1006.78 1006.83 1006.97 1007.45 1008.29 1009.90 1011.00 1010.91 1010.75 1008.59 1008.85 1008.98 1008.48 1003.65 1006.97 1005.66 1005.64 1005.50 1005.56 1004.01 1006.67 1007.23 1008.22 1008.97 1009.69 1010.68 1011.59 1012.16
Thickness
5665 5670 5674 5677 5680 5684 5687 5690 5695 5698 5702 5705 5709 5713 5717 5721 5726 5730 5734 5734 5736 5736 5737 5742 5745 5745 5747 5739 5738 5738 5728 5725 5729 5728 5730 5729 5724 5728 5729 5726 5724 5716 5712 5703 5704
5660 5664 5669 5673 5677 5680 5684 5687 5691 5695 5699 5702 5706 5710 5714 5718 5727 5731 5731 5732 5734 5734 5735 5735 5735 5738 5736 5733 5733 5729 5723 5731 5736 5737 5728 5725 5724 5723 5720 5720 5714 5708 5704 5702 5702
5654 5658 5664 5668 5672 5676 5679 5684 5687 5690 5694 5698 5702 5706 5710 5715 5722 5729 5730 5730 5730 5731 5734 5735 5735 5733 5726 5729 5726 5724 5720 5724 5724 5726 5728 5720 5715 5720 5717 5711 5717 5713 5699 5695 5696
5649 5653 5657 5662 5667 5671 5676 5680 5683 5686 5689 5693 5698 5704 5708 5715 5706 5725 5725 5726 5726 5728 5729 5728 5727 5722 5719 5716 5720 5712 5716 5719 5715 5714 5711 5709 5716 5712 5712 5706 5702 5699 5694 5691 5688
5644 5648 5652 5655 5660 5665 5670 5675 5678 5681 5685 5689 5694 5699 5708 5709 5717 5720 5720 5721 5722 5723 5722 5721 5718 5718 5711 5715 5712 5710 5711 5710 5711 5705 5705 5704 5704 5706 5706 5696 5692 5688 5686 5684 5682
5637 5641 5646 5650 5654 5657 5662 5667 5671 5675 5679 5684 5689 5693 5699 5695 5713 5716 5715 5715 5719 5717 5716 5717 5716 5717 5712 5710 5705 5709 5704 5706 5705 5703 5701 5693 5702 5696 5706 5694 5687 5683 5680 5677 5673
5629 5634 5638 5644 5648 5651 5654 5659 5663 5668 5673 5678 5682 5688 5693 5701 5708 5708 5709 5710 5711 5712 5708 5710 5712 5706 5707 5698 5700 5699 5692 5703 5703 5700 5695 5692 5689 5689 5699 5688 5683 5678 5675 5670 5668
5624 5626 5631 5635 5639 5644 5646 5651 5656 5660 5666 5671 5675 5682 5688 5699 5701 5701 5702 5701 5704 5705 5704 5703 5704 5698 5696 5693 5692 5688 5689 5687 5703 5690 5689 5683 5693 5699 5687 5684 5681 5677 5673 5666 5662
5617 5619 5622 5626 5631 5635 5639 5643 5649 5652 5657 5662 5669 5673 5683 5691 5691 5697 5697 5694 5693 5694 5693 5695 5694 5690 5684 5681 5679 5683 5684 5687 5689 5689 5682 5677 5690 5686 5681 5681 5680 5675 5670 5663 5659
5609 5612 5614 5618 5622 5626 5631 5635 5641 5644 5649 5653 5660 5660 5679 5684 5685 5686 5687 5688 5683 5681 5679 5680 5680 5677 5679 5678 5669 5682 5679 5685 5679 5681 5673 5676 5678 5679 5673 5676 5677 5672 5664 5659 5656
5602 5603 5606 5610 5613 5617 5621 5630 5634 5638 5642 5663 5668 5675 5674 5673 5676 5676 5677 5675 5675 5673 5666 5669 5665 5670 5680 5679 5683 5679 5677 5677 5688 5677 5664 5674 5679 5688 5675 5669 5673 5668 5663 5657 5649
5596 5596 5598 5601 5605 5607 5613 5624 5634 5629 5639 5654 5656 5662 5665 5669 5662 5664 5667 5662 5661 5660 5665 5652 5658 5681 5681 5675 5672 5665 5663 5669 5679 5665 5653 5666 5671 5682 5684 5675 5672 5668 5661 5653 5640
5588 5588 5590 5592 5595 5599 5608 5616 5617 5620 5622 5652 5655 5656 5658 5658 5665 5661 5660 5661 5656 5654 5654 5659 5669 5671 5662 5655 5651 5659 5656 5664 5661 5648 5647 5651 5655 5670 5685 5677 5665 5660 5656 5647 5638
5582 5580 5582 5581 5585 5599 5603 5605 5604 5607 5606 5644 5644 5655 5652 5656 5650 5662 5661 5657 5648 5653 5648 5650 5666 5654 5649 5651 5651 5648 5662 5654 5649 5637 5639 5644 5642 5675 5687 5667 5654 5646 5644 5639 5634
5577 5576 5576 5578 5594 5597 5604 5594 5595 5595 5578 5656 5639 5642 5652 5654 5651 5638 5648 5646 5650 5646 5642 5655 5642 5639 5642 5651 5649 5644 5644 5640 5638 5631 5628 5634 5617 5671 5679 5668 5660 5646 5638 5635 5629
5571 5571 5570 5570 5576 5594 5590 5585 5584 5571 5595 5621 5621 5623 5628 5637 5631 5626 5629 5637 5643 5639 5636 5645 5635 5641 5646 5635 5638 5631 5624 5618 5616 5616 5610 5632 5632 5667 5672 5674 5670 5647 5636 5631 5623
5563 5565 5565 5570 5580 5580 5576 5569 5557 5574 5647 5628 5614 5612 5622 5620 5617 5623 5620 5621 5630 5617 5626 5631 5632 5631 5629 5622 5615 5620 5614 5605 5601 5592 5609 5630 5633 5666 5678 5665 5669 5647 5634 5626 5615
5553 5554 5562 5571 5570 5570 5561 5554 5546 5634 5631 5616 5609 5606 5609 5608 5611 5611 5612 5618 5627 5638 5642 5629 5628 5635 5631 5639 5629 5608 5617 5607 5591 5605 5617 5590 5616 5652 5663 5653 5644 5643 5630 5620 5610
5539 5545 5554 5564 5561 5564 5552 5545 5588 5651 5635 5621 5594 5594 5596 5601 5605 5600 5612 5625 5639 5636 5621 5625 5628 5626 5626 5625 5625 5601 5595 5620 5588 5558 5577 5618 5631 5650 5630 5628 5626 5631 5623 5616 5607
5530 5537 5553 5557 5558 5556 5548 5552 5600 5619 5620 5621 5608 5610 5608 5600 5595 5597 5608 5636 5633 5635 5632 5627 5615 5605 5599 5599 5604 5602 5609 5580 5581 5573 5588 5631 5634 5651 5626 5628 5619 5620 5616 5607 5597
5518 5526 5559 5557 5548 5549 5554 5567 5599 5600 5606 5606 5611 5610 5616 5604 5598 5598 5622 5631 5629 5624 5612 5613 5606 5586 5581 5589 5603 5585 5584 5590 5597 5596 5597 5612 5638 5662 5656 5641 5625 5617 5613 5606 5597
5509 5521 5548 5547 5543 5550 5551 5597 5574 5583 5587 5595 5599 5607 5610 5604 5592 5600 5613 5626 5625 5614 5595 5606 5599 5595 5592 5597 5594 5602 5595 5590 5586 5581 5588 5594 5639 5636 5644 5645 5628 5613 5606 5600 5592
5500 5513 5527 5537 5543 5545 5552 5557 5561 5567 5578 5582 5587 5595 5603 5597 5583 5604 5612 5624 5612 5604 5602 5594 5573 5567 5576 5568 5564 5574 5592 5596 5594 5575 5588 5587 5635 5619 5619 5620 5619 5611 5603 5594 5583
5482 5493 5510 5514 5531 5540 5539 5548 5550 5562 5565 5576 5586 5580 5581 5587 5593 5603 5605 5591 5597 5599 5593 5591 5569 5579 5602 5615 5607 5581 5586 5586 5578 5573 5601 5609 5625 5603 5607 5607 5602 5601 5594 5585 5574
5468 5482 5503 5513 5516 5529 5540 5547 5548 5547 5555 5560 5563 5575 5573 5560 5567 5589 5592 5568 5567 5577 5576 5573 5558 5568 5591 5601 5600 5586 5586 5581 5576 5608 5582 5639 5615 5620 5610 5603 5603 5595 5584 5575 5563
5452 5472 5482 5502 5516 5517 5525 5539 5545 5547 5551 5551 5552 5567 5567 5563 5575 5576 5576 5581 5573 5559 5558 5553 5552 5557 5568 5583 5576 5570 5584 5585 5587 5590 5590 5613 5620 5622 5618 5606 5594 5586 5577 5567 5557
5439 5446 5460 5497 5502 5504 5505 5519 5539 5542 5546 5550 5550 5547 5552 5571 5568 5562 5557 5566 5565 5562 5543 5527 5530 5534 5563 5561 5555 5531 5600 5576 5594 5593 5597 5590 5624 5589 5586 5580 5576 5568 5562 5555 5550